Погода в Као-Лаке

Таиланд     8°45′03″N   98°16′10″E
темп.,
°C
ветер,
м/с
пор.,
м/с
влажн.,
%
обл.,
%
осадки,
мм/ч
давл.,
гПа
погр.,
м
19 апреля, пн
пн1901:00+26з128275 3.4 1011180
04:00+26юз128361 4.0 101084
07:00+26ю128098 6.8 1011269
10:00+29зсз2368100 0.3 1012958
13:00+28з5578100 4.4 1011717
16:00+27з4580100 3.3 1009533
19:00+26зюз5685100 10.9 1010420
22:00+26з4483100 3.6 1011584
20 апреля, вт
вт2001:00+26зюз4481100 3.6 1010660
04:00+27з3381100 0.2 1009625
07:00+26з2281100 2.1 1010420
10:00+28з237485 1.9 1011731
13:00+29з447266 2.4 1010885
16:00+28з347881 2.8 1008709
19:00+27зсз2279100 3.1 1009568
22:00+27зсз2279100 0.0 1011521
21 апреля, ср
ср2101:00+27зсз1280100 0.0 1010503
04:00+26с0181100 0.1 1008462
07:00+27с1181100 0.5 1011418
10:00+28зсз2274100 1.1 1012799
13:00+29зсз3368100 1.8 1010977
16:00+29сз4469100 0.0 10081010
19:00+28сз2377100 0.1 1009548
22:00+27сз237997 2.1 1011504
22 апреля, чт
чт2201:00+27сз2380100 2.4 1010518
04:00+27сз3380100 1.2 1009537
07:00+27зсз3381100 2.5 1010435
10:00+28сз3575100 3.1 1012644
13:00+28сз467686 5.1 1010810
16:00+28сз457488 1.7 1008856
19:00+28сз4480100 3.2 1009576
22:00+28зсз448094 0.2 1011655
23 апреля, пт
пт2301:00+27зсз448195 0.6 1009558
04:00+27зсз458182 1.1 1008558
07:00+27зсз348184 4.4 1010558
10:00+28зсз4577100 4.3 1011831
13:00+28зсз567764 8.3 1010903
16:00+28зсз467892 5.0 1008834
19:00+27зсз4482100 8.7 1009526
22:00+27зсз448192 1.3 1011571